| time (UTC) | temp F | wind direction | speed MPH | gust MPH | rain 1hr in | rain 24hr in | rain mn in | humidity % | barometer mb |
| 20260904171123 | 93 | 211 | 4.0 | 9.0 | 0.00 | 0.00 | 0.00 | 48 | 1013.6 |
| 20260904170617 | 93 | 291 | 3.0 | 9.0 | 0.00 | 0.00 | 0.00 | 47 | 1013.6 |
| 20260904170110 | 94 | 275 | 2.0 | 6.0 | 0.00 | 0.00 | 0.00 | 47 | 1013.6 |
| 20260904165605 | 92 | 218 | 2.0 | 7.0 | 0.00 | 0.00 | 0.00 | 49 | 1013.7 |
| 20260904165059 | 92 | 261 | 2.0 | 7.0 | 0.00 | 0.00 | 0.00 | 48 | 1013.7 |
| 20260904164553 | 92 | 305 | 2.0 | 7.0 | 0.00 | 0.00 | 0.00 | 49 | 1013.8 |
| 20260904164047 | 92 | 284 | 2.0 | 6.0 | 0.00 | 0.00 | 0.00 | 49 | 1013.9 |
| 20260904163541 | 92 | 211 | 2.0 | 6.0 | 0.00 | 0.00 | 0.00 | 49 | 1014.0 |
| 20260904163034 | 91 | 334 | 1.0 | 4.0 | 0.00 | 0.00 | 0.00 | 50 | 1014.0 |
| 20260904162529 | 91 | 263 | 1.0 | 4.0 | 0.00 | 0.00 | 0.00 | 49 | 1014.0 |
| 20260904161518 | 89 | 277 | 2.0 | 5.0 | 0.00 | 0.00 | 0.00 | 51 | 1014.1 |
| 20260904161011 | 89 | 303 | 2.0 | 7.0 | 0.00 | 0.00 | 0.00 | 52 | 1014.1 |
| 20260904160504 | 89 | 289 | 3.0 | 8.0 | 0.00 | 0.00 | 0.00 | 53 | 1014.0 |
| 20260904160001 | 89 | 282 | 3.0 | 8.0 | 0.00 | 0.00 | 0.00 | 52 | 1013.9 |
| 20260904155455 | 89 | 283 | 3.0 | 7.0 | 0.00 | 0.00 | 0.00 | 52 | 1014.0 |
| 20260904154946 | 89 | 280 | 3.0 | 8.0 | 0.00 | 0.00 | 0.00 | 52 | 1014.0 |
| 20260904154441 | 88 | 246 | 3.0 | 8.0 | 0.00 | 0.00 | 0.00 | 51 | 1013.9 |
| 20260904153934 | 89 | 259 | 3.0 | 8.0 | 0.00 | 0.00 | 0.00 | 52 | 1013.8 |
| 20260904152924 | 88 | 271 | 3.0 | 8.0 | 0.00 | 0.00 | 0.00 | 52 | 1013.8 |
| 20260904152417 | 88 | 310 | 3.0 | 7.0 | 0.00 | 0.00 | 0.00 | 53 | 1013.7 |
| 20260904151910 | 87 | 279 | 3.0 | 9.0 | 0.00 | 0.00 | 0.00 | 53 | 1013.7 |
| 20260904151405 | 87 | 254 | 3.0 | 9.0 | 0.00 | 0.00 | 0.00 | 53 | 1013.7 |
| 20260904150859 | 87 | 269 | 3.0 | 8.0 | 0.00 | 0.00 | 0.00 | 53 | 1013.7 |
| 20260904145847 | 87 | 277 | 3.0 | 8.0 | 0.00 | 0.00 | 0.00 | 53 | 1013.7 |
| 20260904145343 | 87 | 285 | 3.0 | 9.0 | 0.00 | 0.00 | 0.00 | 55 | 1013.7 |
| 20260904144329 | 88 | 269 | 3.0 | 8.0 | 0.00 | 0.00 | 0.00 | 53 | 1013.7 |
| 20260904143825 | 88 | 294 | 2.0 | 7.0 | 0.00 | 0.00 | 0.00 | 54 | 1013.6 |
| 20260904143316 | 87 | 257 | 2.0 | 6.0 | 0.00 | 0.00 | 0.00 | 56 | 1013.6 |
| 20260904142811 | 87 | 294 | 2.0 | 6.0 | 0.00 | 0.00 | 0.00 | 56 | 1013.5 |
| 20260904142306 | 87 | 246 | 2.0 | 7.0 | 0.00 | 0.00 | 0.00 | 56 | 1013.4 |
| 20260904141759 | 86 | 269 | 2.0 | 7.0 | 0.00 | 0.00 | 0.00 | 56 | 1013.4 |
| 20260904141252 | 85 | 273 | 2.0 | 8.0 | 0.00 | 0.00 | 0.00 | 56 | 1013.4 |
| 20260904140748 | 85 | 248 | 3.0 | 7.0 | 0.00 | 0.00 | 0.00 | 57 | 1013.3 |
| 20260904140241 | 85 | 277 | 3.0 | 8.0 | 0.00 | 0.00 | 0.00 | 58 | 1013.3 |
| 20260904135735 | 84 | 283 | 2.0 | 8.0 | 0.00 | 0.00 | 0.00 | 58 | 1013.2 |
| 20260904135230 | 84 | 148 | 1.0 | 4.0 | 0.00 | 0.00 | 0.00 | 59 | 1013.2 |
| 20260904134723 | 83 | 232 | 1.0 | 4.0 | 0.00 | 0.00 | 0.00 | 59 | 1013.2 |
| 20260904134217 | 83 | 169 | 1.0 | 4.0 | 0.00 | 0.00 | 0.00 | 61 | 1013.2 |
| 20260904133713 | 83 | 177 | 1.0 | 7.0 | 0.00 | 0.00 | 0.00 | 61 | 1013.2 |
| 20260904133205 | 82 | 196 | 1.0 | 7.0 | 0.00 | 0.00 | 0.00 | 61 | 1013.2 |
| 20260904132659 | 81 | 184 | 0.0 | 4.0 | 0.00 | 0.00 | 0.00 | 62 | 1013.1 |
| 20260904132154 | 80 | 166 | 0.0 | 1.0 | 0.00 | 0.00 | 0.00 | 64 | 1013.1 |
| 20260904131647 | 80 | 159 | 0.0 | 1.0 | 0.00 | 0.00 | 0.00 | 66 | 1013.1 |
| 20260904130634 | 78 | 221 | 0.0 | 2.0 | 0.00 | 0.00 | 0.00 | 70 | 1012.9 |
| 20260904125623 | 77 | 0 | 0.0 | 3.0 | 0.00 | 0.00 | 0.00 | 71 | 1012.8 |
| 20260904125118 | 76 | 0 | 0.0 | 0.0 | 0.00 | 0.00 | 0.00 | 71 | 1012.8 |
| 20260904124105 | 76 | 0 | 1.0 | 4.0 | 0.00 | 0.00 | 0.00 | 71 | 1012.7 |
| 20260904123601 | 75 | 0 | 1.0 | 4.0 | 0.00 | 0.00 | 0.00 | 71 | 1012.6 |
| 20260904123059 | 75 | 0 | 1.0 | 4.0 | 0.00 | 0.00 | 0.00 | 71 | 1012.6 |
| 20260904122601 | 75 | 0 | 1.0 | 4.0 | 0.00 | 0.00 | 0.00 | 71 | 1012.6 |
| 20260904121601 | 74 | 0 | 1.0 | 4.0 | 0.00 | 0.00 | 0.00 | 71 | 1012.6 |
| 20260904120600 | 74 | 0 | 0.0 | 3.0 | 0.00 | 0.00 | 0.00 | 71 | 1012.6 |
| 20260904115100 | 74 | 0 | 0.0 | 0.0 | 0.00 | 0.00 | 0.00 | 71 | 1012.4 |
| 20260904114559 | 74 | 173 | 0.0 | 0.0 | 0.00 | 0.00 | 0.00 | 71 | 1012.3 |
| 20260904114059 | 74 | 173 | 0.0 | 0.0 | 0.00 | 0.00 | 0.00 | 70 | 1012.4 |
| 20260904113058 | 74 | 173 | 0.0 | 0.0 | 0.00 | 0.00 | 0.00 | 70 | 1012.3 |
| 20260904112556 | 74 | 174 | 0.0 | 0.0 | 0.00 | 0.00 | 0.00 | 70 | 1012.3 |
| 20260904112056 | 74 | 173 | 0.0 | 0.0 | 0.00 | 0.00 | 0.00 | 70 | 1012.3 |
| 20260904111600 | 74 | 173 | 0.0 | 0.0 | 0.00 | 0.00 | 0.00 | 70 | 1012.2 |
| 20260904110555 | 74 | 173 | 0.0 | 0.0 | 0.00 | 0.00 | 0.00 | 70 | 1012.2 |
| 20260904110049 | 75 | 173 | 0.0 | 0.0 | 0.00 | 0.00 | 0.00 | 70 | 1012.3 |
| 20260904104025 | 75 | 196 | 0.0 | 0.0 | 0.00 | 0.00 | 0.00 | 70 | 1012.3 |
| 20260904103012 | 75 | 196 | 0.0 | 0.0 | 0.00 | 0.00 | 0.00 | 70 | 1012.3 |
| 20260904102509 | 75 | 200 | 0.0 | 0.0 | 0.00 | 0.00 | 0.00 | 70 | 1012.4 |
| 20260904101454 | 75 | 204 | 0.0 | 0.0 | 0.00 | 0.00 | 0.00 | 70 | 1012.4 |
| 20260904100949 | 75 | 0 | 0.0 | 0.0 | 0.00 | 0.00 | 0.00 | 70 | 1012.4 |
| 20260904095936 | 75 | 200 | 0.0 | 0.0 | 0.00 | 0.00 | 0.00 | 70 | 1012.4 |
| 20260904094419 | 75 | 262 | 0.0 | 0.0 | 0.00 | 0.00 | 0.00 | 70 | 1012.4 |
| 20260904093405 | 76 | 262 | 0.0 | 0.0 | 0.00 | 0.00 | 0.00 | 70 | 1012.5 |
| 20260904092901 | 76 | 229 | 0.0 | 0.0 | 0.00 | 0.00 | 0.00 | 70 | 1012.4 |
| 20260904092353 | 76 | 229 | 0.0 | 0.0 | 0.00 | 0.00 | 0.00 | 70 | 1012.5 |
| 20260904091341 | 76 | 231 | 0.0 | 0.0 | 0.00 | 0.00 | 0.00 | 70 | 1012.5 |
| 20260904090836 | 76 | 231 | 0.0 | 0.0 | 0.00 | 0.00 | 0.00 | 70 | 1012.5 |
| 20260904090330 | 76 | 172 | 0.0 | 0.0 | 0.00 | 0.00 | 0.00 | 70 | 1012.4 |
| 20260904085823 | 76 | 172 | 0.0 | 0.0 | 0.00 | 0.00 | 0.00 | 70 | 1012.5 |
| 20260904085318 | 76 | 172 | 0.0 | 0.0 | 0.00 | 0.00 | 0.00 | 70 | 1012.5 |
| 20260904084307 | 76 | 172 | 0.0 | 0.0 | 0.00 | 0.00 | 0.00 | 70 | 1012.4 |
| 20260904083803 | 76 | 172 | 0.0 | 0.0 | 0.00 | 0.00 | 0.00 | 70 | 1012.4 |
| 20260904083253 | 76 | 172 | 0.0 | 0.0 | 0.00 | 0.00 | 0.00 | 70 | 1012.3 |
| 20260904082748 | 76 | 172 | 0.0 | 3.0 | 0.00 | 0.00 | 0.00 | 70 | 1012.3 |
| 20260904082242 | 76 | 0 | 0.0 | 3.0 | 0.00 | 0.00 | 0.00 | 70 | 1012.3 |
| 20260904081735 | 76 | 182 | 0.0 | 2.0 | 0.00 | 0.00 | 0.00 | 70 | 1012.2 |
| 20260904081229 | 76 | 199 | 1.0 | 3.0 | 0.00 | 0.00 | 0.00 | 70 | 1012.1 |
| 20260904080218 | 76 | 176 | 0.0 | 2.0 | 0.00 | 0.00 | 0.00 | 70 | 1012.0 |
| 20260904075712 | 77 | 175 | 0.0 | 2.0 | 0.00 | 0.00 | 0.00 | 70 | 1012.1 |
| 20260904075206 | 77 | 255 | 0.0 | 2.0 | 0.00 | 0.00 | 0.00 | 70 | 1012.1 |
| 20260904073647 | 77 | 183 | 1.0 | 4.0 | 0.00 | 0.00 | 0.00 | 70 | 1012.2 |
| 20260904073142 | 77 | 178 | 1.0 | 4.0 | 0.00 | 0.00 | 0.00 | 70 | 1012.3 |
| 20260904072637 | 77 | 157 | 1.0 | 4.0 | 0.00 | 0.00 | 0.00 | 70 | 1012.4 |
| 20260904072129 | 77 | 157 | 2.0 | 4.0 | 0.00 | 0.00 | 0.00 | 70 | 1012.4 |
| 20260904071117 | 77 | 177 | 2.0 | 5.0 | 0.00 | 0.00 | 0.00 | 70 | 1012.5 |
| 20260904070613 | 77 | 169 | 1.0 | 5.0 | 0.00 | 0.00 | 0.00 | 70 | 1012.5 |
| 20260904070114 | 77 | 166 | 1.0 | 5.0 | 0.00 | 0.00 | 0.00 | 70 | 1012.6 |
| 20260904065612 | 77 | 186 | 1.0 | 4.0 | 0.00 | 0.00 | 0.00 | 70 | 1012.6 |
| 20260904065115 | 77 | 184 | 1.0 | 4.0 | 0.00 | 0.00 | 0.00 | 70 | 1012.7 |
| 20260904064613 | 77 | 183 | 0.0 | 4.0 | 0.00 | 0.00 | 0.00 | 70 | 1012.7 |
| 20260904063612 | 77 | 153 | 0.0 | 0.0 | 0.00 | 0.00 | 0.00 | 70 | 1012.7 |
| 20260904063114 | 77 | 182 | 1.0 | 5.0 | 0.00 | 0.00 | 0.00 | 70 | 1012.7 |
| 20260904062613 | 77 | 182 | 2.0 | 5.0 | 0.00 | 0.00 | 0.00 | 70 | 1012.7 |
| 20260904061614 | 77 | 132 | 2.0 | 4.0 | 0.00 | 0.00 | 0.00 | 70 | 1012.7 |
| 20260904061113 | 77 | 169 | 2.0 | 4.0 | 0.00 | 0.00 | 0.00 | 70 | 1012.7 |
| 20260904060613 | 77 | 138 | 2.0 | 4.0 | 0.00 | 0.00 | 0.00 | 70 | 1012.8 |
| 20260904060112 | 77 | 145 | 2.0 | 4.0 | 0.00 | 0.00 | 0.00 | 70 | 1012.8 |
| 20260904055615 | 77 | 145 | 2.0 | 4.0 | 0.00 | 0.00 | 0.00 | 70 | 1012.8 |
| 20260904055109 | 77 | 171 | 1.0 | 4.0 | 0.00 | 0.00 | 0.00 | 70 | 1012.8 |
| 20260904054600 | 77 | 155 | 2.0 | 4.0 | 0.00 | 0.00 | 0.00 | 70 | 1012.9 |
| 20260904054055 | 78 | 155 | 2.0 | 4.0 | 0.00 | 0.00 | 0.00 | 70 | 1012.8 |
| 20260904053550 | 78 | 153 | 2.0 | 5.0 | 0.00 | 0.00 | 0.00 | 69 | 1012.8 |
| 20260904053049 | 78 | 151 | 2.0 | 5.0 | 0.00 | 0.00 | 0.00 | 69 | 1012.8 |
| 20260904052549 | 78 | 155 | 2.0 | 5.0 | 0.00 | 0.00 | 0.00 | 69 | 1012.8 |
| 20260904052050 | 78 | 160 | 1.0 | 4.0 | 0.00 | 0.00 | 0.00 | 69 | 1012.8 |
| 20260904051049 | 78 | 163 | 0.0 | 0.0 | 0.00 | 0.00 | 0.00 | 69 | 1012.8 |
| 20260904050547 | 78 | 163 | 0.0 | 0.0 | 0.00 | 0.00 | 0.00 | 68 | 1012.9 |
| 20260904050054 | 78 | 164 | 0.0 | 3.0 | 0.00 | 0.00 | 0.00 | 68 | 1012.8 |
| 20260904045546 | 79 | 163 | 1.0 | 4.0 | 0.00 | 0.00 | 0.00 | 68 | 1012.8 |
| 20260904045044 | 79 | 180 | 0.0 | 4.0 | 0.00 | 0.00 | 0.00 | 68 | 1012.9 |
| 20260904044041 | 79 | 142 | 0.0 | 0.0 | 0.00 | 0.00 | 0.00 | 68 | 1012.8 |
| 20260904043542 | 79 | 144 | 0.0 | 0.0 | 0.00 | 0.00 | 0.00 | 68 | 1012.8 |
| 20260904042538 | 79 | 157 | 0.0 | 0.0 | 0.00 | 0.00 | 0.00 | 67 | 1012.8 |
| 20260904041033 | 80 | 155 | 1.0 | 4.0 | 0.00 | 0.00 | 0.00 | 67 | 1012.8 |
| 20260904040534 | 80 | 175 | 1.0 | 4.0 | 0.00 | 0.00 | 0.00 | 66 | 1012.7 |
| 20260904035531 | 80 | 141 | 2.0 | 5.0 | 0.00 | 0.00 | 0.00 | 66 | 1012.6 |
| 20260904035030 | 80 | 131 | 1.0 | 4.0 | 0.00 | 0.00 | 0.00 | 66 | 1012.7 |
| 20260904034531 | 81 | 139 | 0.0 | 3.0 | 0.00 | 0.00 | 0.00 | 66 | 1012.6 |
| 20260904034033 | 81 | 142 | 0.0 | 0.0 | 0.00 | 0.00 | 0.00 | 65 | 1012.6 |
| 20260904033531 | 81 | 129 | 0.0 | 1.0 | 0.00 | 0.00 | 0.00 | 65 | 1012.7 |
| 20260904033030 | 81 | 158 | 1.0 | 4.0 | 0.00 | 0.00 | 0.00 | 65 | 1012.6 |
| 20260904032530 | 81 | 163 | 1.0 | 4.0 | 0.00 | 0.00 | 0.00 | 65 | 1012.5 |
| 20260904032027 | 81 | 115 | 0.0 | 2.0 | 0.00 | 0.00 | 0.00 | 65 | 1012.5 |
| 20260904031524 | 81 | 115 | 0.0 | 2.0 | 0.00 | 0.00 | 0.00 | 65 | 1012.5 |
| 20260904025524 | 82 | 220 | 1.0 | 3.0 | 0.00 | 0.00 | 0.00 | 64 | 1012.5 |
| 20260904025025 | 82 | 155 | 1.0 | 5.0 | 0.00 | 0.00 | 0.00 | 64 | 1012.5 |
| 20260904024525 | 82 | 147 | 1.0 | 5.0 | 0.00 | 0.00 | 0.00 | 64 | 1012.5 |
| 20260904024028 | 82 | 146 | 1.0 | 6.0 | 0.00 | 0.00 | 0.00 | 64 | 1012.5 |
| 20260904023522 | 82 | 148 | 2.0 | 6.0 | 0.00 | 0.00 | 0.00 | 64 | 1012.4 |
| 20260904023022 | 83 | 152 | 1.0 | 4.0 | 0.00 | 0.00 | 0.00 | 63 | 1012.5 |
| 20260904022521 | 83 | 153 | 1.0 | 4.0 | 0.00 | 0.00 | 0.00 | 63 | 1012.5 |
| 20260904021522 | 83 | 159 | 1.0 | 4.0 | 0.00 | 0.00 | 0.00 | 63 | 1012.4 |
| 20260904021021 | 83 | 148 | 1.0 | 5.0 | 0.00 | 0.00 | 0.00 | 63 | 1012.5 |
| 20260904020521 | 83 | 162 | 1.0 | 5.0 | 0.00 | 0.00 | 0.00 | 63 | 1012.4 |
| 20260904020023 | 83 | 160 | 1.0 | 4.0 | 0.00 | 0.00 | 0.00 | 63 | 1012.4 |
| 20260904015522 | 83 | 155 | 0.0 | 3.0 | 0.00 | 0.00 | 0.00 | 63 | 1012.3 |
| 20260904015017 | 83 | 155 | 0.0 | 2.0 | 0.00 | 0.00 | 0.00 | 63 | 1012.3 |
| 20260904014516 | 83 | 155 | 0.0 | 2.0 | 0.00 | 0.00 | 0.00 | 63 | 1012.4 |
| 20260904014019 | 84 | 163 | 0.0 | 4.0 | 0.00 | 0.00 | 0.00 | 63 | 1012.4 |
| 20260904013517 | 84 | 163 | 1.0 | 4.0 | 0.00 | 0.00 | 0.00 | 63 | 1012.3 |
| 20260904013018 | 84 | 164 | 0.0 | 4.0 | 0.00 | 0.00 | 0.00 | 63 | 1012.2 |
| 20260904012021 | 85 | 170 | 0.0 | 1.0 | 0.00 | 0.00 | 0.00 | 63 | 1012.0 |
| 20260904011517 | 85 | 170 | 0.0 | 0.0 | 0.00 | 0.00 | 0.00 | 62 | 1012.0 |
| 20260904010515 | 86 | 170 | 0.0 | 0.0 | 0.00 | 0.00 | 0.00 | 60 | 1012.0 |
| 20260904010013 | 86 | 170 | 0.0 | 2.0 | 0.00 | 0.00 | 0.00 | 60 | 1011.9 |
| 20260904005513 | 86 | 170 | 1.0 | 4.0 | 0.00 | 0.00 | 0.00 | 60 | 1011.8 |
| 20260904005012 | 87 | 169 | 1.0 | 4.0 | 0.00 | 0.00 | 0.00 | 60 | 1011.7 |
| 20260904004515 | 87 | 166 | 1.0 | 4.0 | 0.00 | 0.00 | 0.00 | 59 | 1011.7 |
| 20260904004015 | 87 | 166 | 1.0 | 3.0 | 0.00 | 0.00 | 0.00 | 59 | 1011.7 |
| 20260904003516 | 87 | 0 | 1.0 | 4.0 | 0.00 | 0.00 | 0.00 | 58 | 1011.7 |
| 20260904003016 | 88 | 165 | 1.0 | 4.0 | 0.00 | 0.00 | 0.00 | 58 | 1011.6 |
| 20260904002012 | 88 | 163 | 1.0 | 2.0 | 0.00 | 0.00 | 0.00 | 58 | 1011.6 |
| 20260904001512 | 89 | 163 | 0.0 | 2.0 | 0.00 | 0.00 | 0.00 | 57 | 1011.6 |
| 20260904001012 | 89 | 127 | 0.0 | 0.0 | 0.00 | 0.00 | 0.00 | 57 | 1011.7 |
| 20260904000011 | 90 | 198 | 0.0 | 0.0 | 0.00 | 0.00 | 0.00 | 55 | 1011.7 |
| 20260903235510 | 91 | 198 | 0.0 | 0.0 | 0.00 | 0.00 | 0.00 | 54 | 1011.9 |
| 20260903235011 | 92 | 198 | 0.0 | 0.0 | 0.00 | 0.00 | 0.00 | 53 | 1011.9 |
| 20260903234510 | 93 | 198 | 0.0 | 0.0 | 0.00 | 0.00 | 0.00 | 52 | 1011.9 |
| 20260903234010 | 93 | 198 | 0.0 | 0.0 | 0.00 | 0.00 | 0.00 | 50 | 1011.8 |
| 20260903233509 | 93 | 198 | 0.0 | 1.0 | 0.00 | 0.00 | 0.00 | 49 | 1011.8 |
| 20260903233007 | 93 | 198 | 0.0 | 1.0 | 0.00 | 0.00 | 0.00 | 50 | 1011.8 |
| 20260903232505 | 93 | 198 | 0.0 | 2.0 | 0.00 | 0.00 | 0.00 | 51 | 1011.8 |
| 20260903231506 | 92 | 281 | 0.0 | 1.0 | 0.00 | 0.00 | 0.00 | 52 | 1011.7 |
| 20260903231005 | 92 | 281 | 1.0 | 4.0 | 0.00 | 0.00 | 0.00 | 51 | 1011.7 |
| 20260903230006 | 92 | 164 | 0.0 | 2.0 | 0.00 | 0.00 | 0.00 | 51 | 1011.7 |
| 20260903225506 | 93 | 202 | 1.0 | 2.0 | 0.00 | 0.00 | 0.00 | 50 | 1011.7 |
| 20260903225007 | 93 | 171 | 1.0 | 3.0 | 0.00 | 0.00 | 0.00 | 50 | 1011.7 |
| 20260903224505 | 93 | 170 | 1.0 | 4.0 | 0.00 | 0.00 | 0.00 | 50 | 1011.8 |
| 20260903224004 | 94 | 215 | 1.0 | 4.0 | 0.00 | 0.00 | 0.00 | 47 | 1011.7 |
| 20260903223505 | 94 | 242 | 1.0 | 6.0 | 0.00 | 0.00 | 0.00 | 47 | 1011.7 |
| 20260903222506 | 94 | 239 | 1.0 | 6.0 | 0.00 | 0.00 | 0.00 | 46 | 1011.8 |
| 20260903221505 | 94 | 263 | 1.0 | 5.0 | 0.00 | 0.00 | 0.00 | 45 | 1011.6 |
| 20260903221004 | 94 | 227 | 1.0 | 4.0 | 0.00 | 0.00 | 0.00 | 45 | 1011.6 |
| 20260903220506 | 94 | 151 | 1.0 | 5.0 | 0.00 | 0.00 | 0.00 | 44 | 1011.6 |
| 20260903220006 | 95 | 171 | 1.0 | 5.0 | 0.00 | 0.00 | 0.00 | 43 | 1011.6 |
| 20260903215505 | 95 | 260 | 1.0 | 4.0 | 0.00 | 0.00 | 0.00 | 43 | 1011.6 |
| 20260903215010 | 96 | 273 | 2.0 | 9.0 | 0.00 | 0.00 | 0.00 | 43 | 1011.6 |
| 20260903214004 | 96 | 230 | 2.0 | 8.0 | 0.00 | 0.00 | 0.00 | 40 | 1011.7 |
| 20260903213503 | 96 | 184 | 2.0 | 8.0 | 0.00 | 0.00 | 0.00 | 41 | 1011.6 |
| 20260903213004 | 96 | 272 | 3.0 | 8.0 | 0.00 | 0.00 | 0.00 | 41 | 1011.7 |
| 20260903212503 | 95 | 283 | 4.0 | 9.0 | 0.00 | 0.00 | 0.00 | 42 | 1011.7 |
| 20260903212004 | 96 | 293 | 2.0 | 9.0 | 0.00 | 0.00 | 0.00 | 40 | 1011.7 |
| 20260903211504 | 97 | 305 | 3.0 | 9.0 | 0.00 | 0.00 | 0.00 | 42 | 1011.7 |
| 20260903211000 | 96 | 255 | 4.0 | 11.0 | 0.00 | 0.00 | 0.00 | 41 | 1011.7 |
| 20260903210501 | 96 | 305 | 4.0 | 12.0 | 0.00 | 0.00 | 0.00 | 39 | 1011.7 |
| 20260903210003 | 96 | 256 | 5.0 | 12.0 | 0.00 | 0.00 | 0.00 | 40 | 1011.7 |
| 20260903205501 | 96 | 295 | 4.0 | 8.0 | 0.00 | 0.00 | 0.00 | 41 | 1011.8 |
| 20260903204956 | 96 | 282 | 3.0 | 8.0 | 0.00 | 0.00 | 0.00 | 42 | 1011.7 |
| 20260903203455 | 96 | 255 | 3.0 | 8.0 | 0.00 | 0.00 | 0.00 | 42 | 1011.8 |
| 20260903202954 | 95 | 252 | 4.0 | 10.0 | 0.00 | 0.00 | 0.00 | 43 | 1011.9 |
| 20260903202455 | 95 | 211 | 4.0 | 10.0 | 0.00 | 0.00 | 0.00 | 45 | 1011.9 |
| 20260903201454 | 93 | 264 | 2.0 | 6.0 | 0.00 | 0.00 | 0.00 | 46 | 1011.9 |
| 20260903200952 | 94 | 264 | 1.0 | 4.0 | 0.00 | 0.00 | 0.00 | 45 | 1012.0 |
| 20260903200456 | 94 | 236 | 2.0 | 4.0 | 0.00 | 0.00 | 0.00 | 45 | 1012.1 |
| 20260903195950 | 94 | 273 | 2.0 | 8.0 | 0.00 | 0.00 | 0.00 | 43 | 1012.2 |
| 20260903194950 | 96 | 252 | 3.0 | 11.0 | 0.00 | 0.00 | 0.00 | 43 | 1012.2 |
| 20260903193954 | 97 | 222 | 4.0 | 12.0 | 0.00 | 0.00 | 0.00 | 41 | 1012.2 |
| 20260903193446 | 97 | 274 | 2.0 | 12.0 | 0.00 | 0.00 | 0.00 | 40 | 1012.2 |
| 20260903192442 | 96 | 285 | 3.0 | 9.0 | 0.00 | 0.00 | 0.00 | 41 | 1012.3 |
| 20260903191940 | 96 | 272 | 3.0 | 8.0 | 0.00 | 0.00 | 0.00 | 41 | 1012.4 |
| 20260903191441 | 96 | 256 | 2.0 | 8.0 | 0.00 | 0.00 | 0.00 | 42 | 1012.5 |
| 20260903190941 | 96 | 236 | 2.0 | 9.0 | 0.00 | 0.00 | 0.00 | 41 | 1012.5 |
| 20260903190440 | 96 | 259 | 4.0 | 11.0 | 0.00 | 0.00 | 0.00 | 42 | 1012.6 |
| 20260903185941 | 95 | 271 | 5.0 | 11.0 | 0.00 | 0.00 | 0.00 | 42 | 1012.6 |
| 20260903185442 | 95 | 238 | 6.0 | 13.0 | 0.00 | 0.00 | 0.00 | 44 | 1012.6 |
| 20260903184942 | 95 | 294 | 5.0 | 13.0 | 0.00 | 0.00 | 0.00 | 41 | 1012.7 |
| 20260903183940 | 95 | 236 | 5.0 | 11.0 | 0.00 | 0.00 | 0.00 | 43 | 1012.8 |
| 20260903182944 | 95 | 254 | 5.0 | 12.0 | 0.00 | 0.00 | 0.00 | 44 | 1012.9 |
| 20260903182443 | 94 | 293 | 5.0 | 13.0 | 0.00 | 0.00 | 0.00 | 44 | 1012.9 |
| 20260903181937 | 94 | 244 | 5.0 | 13.0 | 0.00 | 0.00 | 0.00 | 44 | 1013.0 |
| 20260903181432 | 95 | 265 | 5.0 | 13.0 | 0.00 | 0.00 | 0.00 | 42 | 1013.0 |
| 20260903180927 | 94 | 280 | 5.0 | 13.0 | 0.00 | 0.00 | 0.00 | 44 | 1013.1 |
| 20260903180427 | 94 | 291 | 4.0 | 11.0 | 0.00 | 0.00 | 0.00 | 44 | 1013.1 |
| 20260903175927 | 95 | 286 | 4.0 | 10.0 | 0.00 | 0.00 | 0.00 | 45 | 1013.1 |
| 20260903175425 | 94 | 256 | 5.0 | 10.0 | 0.00 | 0.00 | 0.00 | 46 | 1013.1 |
| 20260903174925 | 93 | 262 | 4.0 | 11.0 | 0.00 | 0.00 | 0.00 | 45 | 1013.1 |
| 20260903174425 | 94 | 246 | 4.0 | 11.0 | 0.00 | 0.00 | 0.00 | 44 | 1013.1 |
| 20260903173922 | 94 | 292 | 5.0 | 11.0 | 0.00 | 0.00 | 0.00 | 47 | 1013.1 |
| 20260903173422 | 93 | 227 | 5.0 | 11.0 | 0.00 | 0.00 | 0.00 | 46 | 1013.3 |
| 20260903172921 | 93 | 280 | 3.0 | 9.0 | 0.00 | 0.00 | 0.00 | 44 | 1013.1 |
| 20260903172422 | 94 | 287 | 3.0 | 9.0 | 0.00 | 0.00 | 0.00 | 46 | 1013.1 |
| 20260903171922 | 94 | 248 | 3.0 | 8.0 | 0.00 | 0.00 | 0.00 | 47 | 1013.1 |
| 20260903171419 | 93 | 227 | 3.0 | 9.0 | 0.00 | 0.00 | 0.00 | 48 | 1013.1 |